Location: Walnut Hills Mobile Home Park
(34.0445°N, 117.8184°W)
Time: 02:15:17
(UTC+00:00)

SL-4 R/B - Pass Details

Date: 17 December 2025
Orbit: 386 x 521 km, 51.6° (Epoch: 15 January)

Event Time Altitude Azimuth Distance (km) Brightness Sun altitude
Exits shadow 12:30:03 17° 94° (E) 1,091 4.3 -28.3°
Drops below altitude 10° 12:30:59 10° 103° (ESE) 1,418 5.1 -28.1°
Enters shadow 13:29:00 -67° 318° (NW) 12,272 8.8 -16.5°
Sets 14:09:59 0° 169° (SSE) 2,247 5.7 -8.5°
